This is the latest recevied weather packets stored in our database for station/object GBTWP-2. If no packets are shown the sender has not sent any weather packets the latest 10 day(s).
| Time | Temp. | Humidity | Pressure | Rain* | Wind** | Luminosity | Snow |
|---|---|---|---|---|---|---|---|
| 1777692302 | 4.44° C | 76% | 1019 hPa | 0 mm | - | 0 W/m² | - |
| 1777692002 | 4.44° C | 74% | 1018.9 hPa | 0 mm | - | 0 W/m² | - |
| 1777691702 | 4.44° C | 74% | 1018.9 hPa | 0 mm | - | 0 W/m² | - |
| 1777691402 | 4.44° C | 72% | 1019 hPa | 0 mm | - | 0 W/m² | - |
| 1777691102 | 4.44° C | 66% | 1018.8 hPa | 0 mm | - | 0 W/m² | - |
| 1777690502 | 5° C | 66% | 1018.8 hPa | 0 mm | - | 0 W/m² | - |
| 1777690202 | 5° C | 66% | 1018.9 hPa | 0 mm | - | 0 W/m² | - |
| 1777689902 | 5° C | 65% | 1018.9 hPa | 0 mm | - | 0 W/m² | - |
| 1777689002 | 5° C | 65% | 1018.8 hPa | 0 mm | - | 0 W/m² | - |
| 1777688703 | 5° C | 64% | 1018.9 hPa | 0 mm | - | 0 W/m² | - |
| 1777688402 | 5° C | 65% | 1018.8 hPa | 0 mm | - | 0 W/m² | - |
| 1777688101 | 5° C | 64% | 1019 hPa | 0 mm | - | 0 W/m² | - |
| 1777687802 | 5° C | 69% | 1018.8 hPa | 0 mm | - | 0 W/m² | - |
| 1777686902 | 5° C | 69% | 1018.7 hPa | 0 mm | - | 0 W/m² | - |
| 1777685702 | 5° C | 68% | 1018.5 hPa | 0 mm | - | 0 W/m² | - |
| 1777685402 | 5.56° C | 68% | 1018.4 hPa | 0 mm | - | 0 W/m² | - |
| 1777685102 | 5.56° C | 66% | 1018.4 hPa | 0 mm | - | 0 W/m² | - |
| 1777684502 | 5.56° C | 65% | 1018.3 hPa | 0 mm | - | 0 W/m² | - |
| 1777684202 | 5.56° C | 64% | 1018.3 hPa | 0 mm | - | 0 W/m² | - |
| 1777683901 | 5.56° C | 64% | 1018.2 hPa | 0 mm | - | 0 W/m² | - |
| 1777683602 | 5.56° C | 63% | 1018.3 hPa | 0 mm | - | 0 W/m² | - |
| 1777683302 | 6.11° C | 62% | 1018 hPa | 0 mm | - | 0 W/m² | - |
| 1777683002 | 6.11° C | 61% | 1018 hPa | 0 mm | - | 0 W/m² | - |
| 1777682402 | 6.11° C | 61% | 1017.9 hPa | 0 mm | - | 0 W/m² | - |
| 1777682102 | 6.11° C | 62% | 1018 hPa | 0 mm | - | 1 W/m² | - |
* Rain latest hour (hover to see other rain measurements)
** Current wind speed in m/s (hover to see current wind gust speed)